• In Deutschland
  • Länderverzeichnis
  • Für 7 Tage
  • Wassertemperatur
  • Satellitenkarten
  • Wetterkarte
  • Widgets
  • user-avatar
    Anmelden

    Stündliche Wetter Döbeln

    Heute, 17 Oktober, Dienstag

    Zeit Temperatur Niederschläge Wind Luftdruck Luftfeuchtigkeit
    00:00 +16°C° 0 mm 3 m/S 747 mmHg 73%
    01:00 +16°C° 0 mm 3 m/S 747 mmHg 70%
    02:00 +14°C° 0 mm 3 m/S 746 mmHg 70%
    03:00 +14°C° 0 mm 3 m/S 746 mmHg 70%
    04:00 +14°C° 0 mm 3 m/S 746 mmHg 70%
    05:00 +14°C° 0 mm 3 m/S 746 mmHg 71%
    06:00 +14°C° 0 mm 3 m/S 746 mmHg 71%
    07:00 +14°C° 0 mm 3 m/S 746 mmHg 72%
    08:00 +16°C° 0 mm 3 m/S 746 mmHg 67%
    09:00 +18°C° 0 mm 3 m/S 746 mmHg 62%
    10:00 +20°C° 0 mm 3 m/S 746 mmHg 57%
    11:00 +21°C° 0 mm 3 m/S 746 mmHg 55%
    12:00 +23°C° 0 mm 2 m/S 746 mmHg 52%
    13:00 +24°C° 0 mm 2 m/S 746 mmHg 49%
    14:00 +24°C° 0 mm 2 m/S 745 mmHg 53%
    15:00 +23°C° 0 mm 1 m/S 745 mmHg 57%
    16:00 +23°C° 0 mm 1 m/S 744 mmHg 60%
    17:00 +21°C° 0 mm 1 m/S 744 mmHg 65%
    18:00 +19°C° 0 mm 1 m/S 744 mmHg 69%
    19:00 +16°C° 0 mm 1 m/S 744 mmHg 73%
    20:00 +16°C° 0 mm 1 m/S 744 mmHg 74%
    21:00 +15°C° 0 mm 1 m/S 744 mmHg 75%
    22:00 +15°C° 0 mm 2 m/S 743 mmHg 76%
    23:00 +15°C° 0 mm 1 m/S 743 mmHg 77%

    Morgen, 18 Oktober, Mittwoch

    Zeit Temperatur Niederschläge Wind Luftdruck Luftfeuchtigkeit
    00:00 +14°C° 0 mm 1 m/S 743 mmHg 78%
    01:00 +14°C° 0 mm 1 m/S 743 mmHg 79%
    02:00 +13°C° 0 mm 1 m/S 742 mmHg 79%
    03:00 +13°C° 0 mm 1 m/S 742 mmHg 80%
    04:00 +13°C° 0 mm 1 m/S 742 mmHg 81%
    05:00 +13°C° 0 mm 1 m/S 742 mmHg 80%
    06:00 +13°C° 0 mm 2 m/S 742 mmHg 80%
    07:00 +12°C° 0 mm 2 m/S 741 mmHg 80%
    08:00 +14°C° 0 mm 2 m/S 741 mmHg 74%
    09:00 +16°C° 0 mm 1 m/S 741 mmHg 69%
    10:00 +19°C° 0 mm 1 m/S 741 mmHg 63%
    11:00 +20°C° 0 mm 1 m/S 741 mmHg 59%
    12:00 +21°C° 0 mm 1 m/S 741 mmHg 56%
    13:00 +22°C° 0 mm 1 m/S 741 mmHg 53%
    14:00 +21°C° 0 mm 1 m/S 740 mmHg 57%
    15:00 +19°C° 0 mm 0 m/S 740 mmHg 60%
    16:00 +18°C° 0 mm 0 m/S 740 mmHg 64%
    17:00 +19°C° 0 mm 1 m/S 740 mmHg 68%
    18:00 +18°C° 0 mm 1 m/S 740 mmHg 71%
    19:00 +15°C° 0 mm 1 m/S 740 mmHg 75%
    20:00 +15°C° 0 mm 1 m/S 740 mmHg 77%
    21:00 +14°C° 0 mm 2 m/S 740 mmHg 78%
    22:00 +14°C° 0 mm 2 m/S 740 mmHg 80%
    23:00 +14°C° 0 mm 2 m/S 740 mmHg 80%

    übermorgen, 19 Oktober, Donnerstag

    Zeit Temperatur Niederschläge Wind Luftdruck Luftfeuchtigkeit
    00:00 +13°C° 0 mm 2 m/S 740 mmHg 80%
    01:00 +13°C° 0 mm 2 m/S 739 mmHg 81%
    02:00 +12°C° 0 mm 2 m/S 739 mmHg 80%
    03:00 +12°C° 0 mm 2 m/S 740 mmHg 79%
    04:00 +12°C° 0 mm 2 m/S 740 mmHg 78%
    05:00 +10°C° 0 mm 2 m/S 740 mmHg 78%
    06:00 +10°C° 0 mm 2 m/S 740 mmHg 78%
    07:00 +10°C° 0 mm 2 m/S 740 mmHg 79%
    08:00 +13°C° 0 mm 2 m/S 740 mmHg 73%
    09:00 +15°C° 0 mm 2 m/S 740 mmHg 68%
    10:00 +17°C° 0 mm 2 m/S 740 mmHg 62%
    11:00 +19°C° 0 mm 2 m/S 740 mmHg 57%
    12:00 +20°C° 0 mm 2 m/S 740 mmHg 53%
    13:00 +21°C° 0 mm 2 m/S 740 mmHg 48%
    14:00 +21°C° 0 mm 2 m/S 740 mmHg 51%
    15:00 +20°C° 0 mm 2 m/S 739 mmHg 54%
    16:00 +20°C° 0 mm 1 m/S 739 mmHg 57%
    17:00 +18°C° 0 mm 2 m/S 739 mmHg 61%
    18:00 +17°C° 0 mm 2 m/S 739 mmHg 64%
    19:00 +15°C° 0 mm 2 m/S 740 mmHg 67%
    20:00 +15°C° 0 mm 2 m/S 740 mmHg 67%
    21:00 +15°C° 0 mm 2 m/S 740 mmHg 68%
    22:00 +14°C° 0 mm 2 m/S 740 mmHg 68%
    23:00 +13°C° 0 mm 3 m/S 740 mmHg 67%

    20 Oktober, Freitag

    Zeit Temperatur Niederschläge Wind Luftdruck Luftfeuchtigkeit
    00:00 +13°C° 0 mm 3 m/S 740 mmHg 67%
    01:00 +13°C° 0 mm 3 m/S 740 mmHg 67%
    02:00 +13°C° 0 mm 3 m/S 740 mmHg 67%
    03:00 +13°C° 0 mm 3 m/S 740 mmHg 67%
    04:00 +13°C° 0 mm 3 m/S 740 mmHg 67%
    05:00 +12°C° 0 mm 3 m/S 740 mmHg 68%
    06:00 +12°C° 0 mm 3 m/S 740 mmHg 70%
    07:00 +12°C° 0 mm 3 m/S 740 mmHg 71%
    08:00 +14°C° 0 mm 3 m/S 740 mmHg 68%
    09:00 +16°C° 0 mm 3 m/S 740 mmHg 64%
    10:00 +18°C° 0 mm 4 m/S 740 mmHg 61%
    11:00 +18°C° 0,1 mm 4 m/S 740 mmHg 62%
    12:00 +18°C° 0,1 mm 4 m/S 740 mmHg 62%
    13:00 +19°C° 0,1 mm 4 m/S 740 mmHg 63%
    14:00 +18°C° 0,2 mm 4 m/S 740 mmHg 66%
    15:00 +18°C° 0,2 mm 4 m/S 740 mmHg 69%
    16:00 +17°C° 0,2 mm 3 m/S 739 mmHg 72%
    17:00 +17°C° 0 mm 3 m/S 739 mmHg 75%
    18:00 +15°C° 0 mm 4 m/S 740 mmHg 77%
    19:00 +14°C° 0 mm 4 m/S 740 mmHg 79%
    20:00 +14°C° 0 mm 4 m/S 740 mmHg 81%
    21:00 +13°C° 0 mm 4 m/S 740 mmHg 84%
    22:00 +13°C° 0 mm 4 m/S 741 mmHg 86%
    23:00 +13°C° 0 mm 3 m/S 741 mmHg 87%

    21 Oktober, Samstag

    Zeit Temperatur Niederschläge Wind Luftdruck Luftfeuchtigkeit
    00:00 +12°C° 0 mm 3 m/S 741 mmHg 89%
    01:00 +12°C° 0 mm 3 m/S 741 mmHg 90%
    02:00 +12°C° 0 mm 3 m/S 740 mmHg 90%
    03:00 +12°C° 0 mm 3 m/S 740 mmHg 90%
    04:00 +12°C° 0 mm 3 m/S 740 mmHg 90%
    05:00 +12°C° 0 mm 3 m/S 740 mmHg 88%
    06:00 +13°C° 0 mm 3 m/S 740 mmHg 87%
    07:00 +13°C° 0 mm 3 m/S 740 mmHg 85%
    08:00 +14°C° 0 mm 4 m/S 740 mmHg 80%
    09:00 +15°C° 0 mm 4 m/S 740 mmHg 75%
    10:00 +17°C° 0 mm 5 m/S 740 mmHg 70%
    11:00 +17°C° 0,1 mm 5 m/S 740 mmHg 71%
    12:00 +17°C° 0,1 mm 5 m/S 740 mmHg 72%
    13:00 +17°C° 0,1 mm 5 m/S 739 mmHg 73%
    14:00 +17°C° 0,1 mm 5 m/S 739 mmHg 75%
    15:00 +18°C° 0,1 mm 4 m/S 739 mmHg 77%
    16:00 +18°C° 0,1 mm 4 m/S 739 mmHg 79%
    17:00 +17°C° 0,7 mm 4 m/S 739 mmHg 82%
    18:00 +15°C° 0,7 mm 4 m/S 739 mmHg 85%
    19:00 +15°C° 0,7 mm 4 m/S 739 mmHg 88%
    20:00 +14°C° 0,2 mm 3 m/S 739 mmHg 89%
    21:00 +14°C° 0,2 mm 3 m/S 739 mmHg 90%
    22:00 +14°C° 0,2 mm 3 m/S 739 mmHg 91%
    23:00 +14°C° 0,1 mm 3 m/S 739 mmHg 91%

    22 Oktober, Sonntag

    Zeit Temperatur Niederschläge Wind Luftdruck Luftfeuchtigkeit
    00:00 +13°C° 0,1 mm 3 m/S 739 mmHg 91%
    01:00 +13°C° 0,1 mm 3 m/S 739 mmHg 90%
    02:00 +13°C° 0,4 mm 3 m/S 739 mmHg 91%
    03:00 +12°C° 0,4 mm 3 m/S 739 mmHg 91%
    04:00 +12°C° 0,4 mm 3 m/S 738 mmHg 91%
    05:00 +12°C° 0,3 mm 3 m/S 739 mmHg 90%
    06:00 +12°C° 0,3 mm 4 m/S 739 mmHg 89%
    07:00 +11°C° 0,3 mm 4 m/S 739 mmHg 88%
    08:00 +12°C° 0,1 mm 4 m/S 739 mmHg 85%
    09:00 +12°C° 0,1 mm 5 m/S 739 mmHg 82%
    10:00 +12°C° 0,1 mm 5 m/S 739 mmHg 79%
    11:00 +12°C° 0 mm 5 m/S 739 mmHg 76%
    12:00 +12°C° 0 mm 5 m/S 739 mmHg 74%
    13:00 +10°C° 0 mm 5 m/S 739 mmHg 71%
    14:00 +10°C° 0,1 mm 5 m/S 739 mmHg 71%
    15:00 +10°C° 0,1 mm 5 m/S 739 mmHg 71%
    16:00 +10°C° 0,1 mm 5 m/S 739 mmHg 70%
    17:00 +9°C° 0 mm 5 m/S 739 mmHg 72%
    18:00 +8°C° 0 mm 5 m/S 739 mmHg 73%
    19:00 +7°C° 0 mm 5 m/S 739 mmHg 75%
    20:00 +7°C° 0,1 mm 5 m/S 739 mmHg 76%
    21:00 +7°C° 0,1 mm 6 m/S 739 mmHg 78%
    22:00 +7°C° 0,1 mm 6 m/S 739 mmHg 79%
    23:00 +7°C° 0,5 mm 6 m/S 740 mmHg 81%
    Mehr zeigen